Lima, OH

1:30 PM EDT on August 18, 2017 (GMT -0400)
Lima Allen County

Weather History for KAOH - February, 2014

Change the Weather History Date:

Friday, February 28, 2014

  Actual Average (KFDY) Record (KFDY)
Temperature  
Mean Temperature 16 °F -  
Max Temperature 30 °F 40 °F 66 °F (2016)
Min Temperature 1 °F 23 °F -2 °F (2015)
Degree Days  
Heating Degree Days 50    
Moisture  
Dew Point 1 °F    
Average Humidity 52    
Maximum Humidity 72    
Minimum Humidity 33    
Precipitation  
Precipitation 0.00 in - - ()
Sea Level Pressure  
Sea Level Pressure 30.23 in    
Wind  
Wind Speed 6 mph (SE)    
Max Wind Speed 14 mph    
Max Gust Speed 18 mph    
Visibility 10 miles    
Events      
Averages and records for this station are not official NWS values.
T = Trace of Precipitation, MM = Missing Value Source: NWS Daily Summary

Daily Weather History Graph

Daily Weather History Graph

Search for Another Location

Airport or City:

Trip Planner

Search our weather history database for the weather conditions in past years. The results will help you decide how hot, cold, wet, or windy it might be!

Date:

Astronomy

Feb. 28, 2014 Rise Set
Actual Time 7:11 AM EST 6:26 PM EST
Civil Twilight 6:44 AM EST 6:53 PM EST
Nautical Twilight 6:12 AM EST 7:25 PM EST
Astronomical Twilight 5:40 AM EST 7:57 PM EST
Moon 6:25 AM EST (2/28) 6:02 PM EST (2/28)
Length of Visible Light 12h 09m
Length of Day
11h 14m
Waning Crescent, 1% of the Moon is Illuminated
Feb 28
Waning Crescent
Mar 1
New
Mar 8
First Quarter
Mar 16
Full
Mar 23
Last Quarter

Hourly Weather History & Observations

Time (EST) Temp. Windchill Dew Point Humidity Pressure Visibility Wind Dir Wind Speed Gust Speed Precip Events Conditions
12:53 AM 5.0 °F - -6.0 °F 61% 30.24 in 10.0 mi Calm Calm - N/A   Clear
1:53 AM 3.0 °F -8.0 °F -6.0 °F 66% 30.24 in 10.0 mi NNE 5.8 mph - N/A   Clear
2:53 AM 3.0 °F -6.4 °F -5.1 °F 69% 30.25 in 10.0 mi ENE 4.6 mph - N/A   Clear
3:53 AM 3.0 °F - -6.0 °F 66% 30.25 in 10.0 mi Calm Calm - N/A   Clear
4:53 AM 1.9 °F -5.6 °F -7.1 °F 66% 30.28 in 10.0 mi ESE 3.5 mph - N/A   Clear
5:53 AM 1.0 °F -10.3 °F -6.0 °F 72% 30.28 in 10.0 mi East 5.8 mph - N/A   Clear
6:53 AM 3.9 °F -8.2 °F -5.1 °F 66% 30.30 in 10.0 mi ESE 6.9 mph - N/A   Clear
7:53 AM 6.1 °F -5.6 °F -4.0 °F 63% 30.32 in 10.0 mi SE 6.9 mph - N/A   Clear
8:53 AM 10.0 °F -4.5 °F -2.9 °F 56% 30.32 in 10.0 mi SE 11.5 mph - N/A   Clear
9:53 AM 12.9 °F -2.2 °F -2.9 °F 49% 30.31 in 10.0 mi SSE 13.8 mph - N/A   Clear
10:53 AM 16.0 °F 3.6 °F -2.0 °F 45% 30.32 in 10.0 mi SE 10.4 mph - N/A   Clear
11:53 AM 19.0 °F 8.2 °F -0.9 °F 42% 30.30 in 10.0 mi SSE 9.2 mph 18.4 mph N/A   Clear
12:53 PM 23.0 °F 12.4 °F 1.0 °F 39% 30.27 in 10.0 mi ESE 10.4 mph - N/A   Clear
1:53 PM 25.0 °F 14.2 °F 1.0 °F 36% 30.24 in 10.0 mi SSE 11.5 mph - N/A   Clear
2:53 PM 27.0 °F 18.7 °F 1.9 °F 34% 30.21 in 10.0 mi South 8.1 mph - N/A   Clear
3:53 PM 30.0 °F 21.1 °F 3.9 °F 33% 30.19 in 10.0 mi South 10.4 mph - N/A   Clear
4:53 PM 30.0 °F 20.0 °F 3.9 °F 33% 30.17 in 10.0 mi SSE 12.7 mph - N/A   Clear
5:53 PM 28.9 °F 18.2 °F 5.0 °F 36% 30.15 in 10.0 mi SSE 13.8 mph - N/A   Clear
6:53 PM 27.0 °F 17.3 °F 8.1 °F 45% 30.14 in 10.0 mi SE 10.4 mph - N/A   Clear
7:53 PM 26.1 °F 17.6 °F 9.0 °F 49% 30.14 in 10.0 mi SE 8.1 mph - N/A   Clear
8:53 PM 25.0 °F 17.1 °F 9.0 °F 51% 30.14 in 10.0 mi SE 6.9 mph - N/A   Clear
9:53 PM 24.1 °F 15.2 °F 9.0 °F 53% 30.14 in 10.0 mi SSE 8.1 mph - N/A   Clear
10:53 PM 24.1 °F 13.7 °F 10.0 °F 55% 30.13 in 10.0 mi SSE 10.4 mph - N/A   Clear
11:53 PM 25.0 °F 14.2 °F 10.0 °F 53% 30.10 in 10.0 mi SSE 11.5 mph - N/A   Clear